Back to catalog

FENGYUN 1C DEB

AliveSSO
NORAD 30074·DEBRIS·🇨🇳 China

Launched May 10, 1999 from Taiyuan Satellite Launch Center

Loading…

Next Passes (next 24 hours)

TLE

AgingSource: Space-Track

Epoch: Sep 9, 2026, 03:55 UTC

1 30074U 99025QB  26252.16342704  .00001500  00000-0  77671-3 0  9990
2 30074  99.1132 328.6619 0096240 110.7379 250.4139 14.14083049  4535

Track FENGYUN 1C DEB in real time with AllMySat

Download on the App Store